Tracking 28799 objects as of 18-Apr-2024
HD Live streaming from Space Station
objects crossing your sky now

COSMOS 252 DEB

Track COSMOS 252 DEB now!
10-day predictions


NORAD ID: 9973
Int'l Code: 1968-097DV
Perigee: 545.6 km
Apogee: 1,515.2 km
Inclination: 62.4 °
Period: 105.6 minutes
Semi major axis: 7401 km
RCS: 0.0161 m2 (small)
Launch date: November 1, 1968
Source: Commonwealth of Independent States (former USSR) (CIS)
Launch site: TYURATAM MISSILE AND SPACE COMPLEX (TTMTR)

Note: This is SATELLITE DEBRIS
Your satellite tracking list
Your tracking list is empty




NASA's NSSDC Master Catalog

Two Line Element Set (TLE):
1  9973U 68097DV  24107.34169803  .00010175  00000-0  29192-2 0  9995
2  9973  62.3995  89.5600 0655000  78.8546 288.5360 13.63421254922327
Source of the keplerian elements: AFSPC